Big Sky, USA 16 day weather forecast

Slopes altitude range 2070 m - 3400m

Number of lifts: 17 Pistes: 150km

In some cases the lift and piste totals shown are for the ski domain (e.g. Three Valleys) rather than individual resort (e.g. Courchevel)

Overview

The 16 day weather forecast is fully updated 4 times every day.

    • Sun 23 SEP 2018
    • Sun 23
    • 6C 7C
    • Mon 24 SEP 2018
    • Mon 24
    • -1C 1C
    • Tue 25 SEP 2018
    • Tue 25
    • -3C -1C
    • Wed 26 SEP 2018
    • Wed 26
    • -2C 0C
    • Thu 27 SEP 2018
    • Thu 27
    • 0C 1C
    • Fri 28 SEP 2018
    • Fri 28
    • 2C 4C
    • Sat 29 SEP 2018
    • Sat 29
    • 4C 6C
    • Sun 30 SEP 2018
    • Sun 30
    • 4C 6C
    • Mon 01 OCT 2018
    • Mon 01
    • 1C 2C
    • Tue 02 OCT 2018
    • Tue 02
    • -1C 2C
    • Wed 03 OCT 2018
    • Wed 03
    • -4C 9C
    • Thu 04 OCT 2018
    • Thu 04
    • -2C 11C
    • Fri 05 OCT 2018
    • Fri 05
    • -1C 10C
    • Sat 06 OCT 2018
    • Sat 06
    • -2C 10C
    • Sun 07 OCT 2018
    • Sun 07
    • -1C 11C
    • Mon 08 OCT 2018
    • Mon 08
    • 1C 11C

Date:

Time Type 0°C level Temp Chill Snow Cloud Speed Gust Dir Press
3:00 4012m 9°C 9_5 0cm 97% 5mph 6mph 1013mB
6:00 3952m 7°C 7_2 0cm 97% 2mph 2mph 1014mB
9:00 3830m 6°C 6_3 0cm 98% 3mph 4mph 1013mB
12:00 3804m 7°C 7_4 0cm 96% 4mph 5mph 1013mB
15:00 3754m 8°C 8_6 0cm 100% 6mph 10mph 1012mB
18:00 3508m 12°C 12_10 0cm 100% 10mph 24mph 1011mB
21:00 3224m 8°C 8_8 0cm 100% 8mph 16mph 1010mB
0:00 3329m 8°C 8_8 0cm 100% 8mph 17mph 1010mB
3:00 3324m 4°C 4_3 0cm 58% 3mph 4mph 1012mB
6:00 3149m 1°C 1_4 3cm 31% 4mph 6mph 1014mB
9:00 2663m 0°C 0_3 0cm 0% 3mph 4mph 1016mB
12:00 2223m 1°C 1_1 0cm 4% 1mph 2mph 1016mB
15:00 2826m 3°C 3_3 0cm 29% 3mph 4mph 1016mB
18:00 3032m 8°C 8_8 0cm 14% 8mph 11mph 1015mB
21:00 3212m 8°C 8_13 0cm 0% 13mph 17mph 1013mB
0:00 3223m 8°C 8_13 0cm 1% 13mph 18mph 1014mB
3:00 2907m 1°C 1_6 0cm 10% 6mph 7mph 1019mB
6:00 2269m -1°C -1_5 0cm 12% 5mph 6mph 1022mB
9:00 2069m -2°C -2_3 0cm 0% 3mph 4mph 1024mB
12:00 1932m -1°C -1_2 0cm 0% 2mph 2mph 1026mB
15:00 2525m 2°C 2_2 0cm 21% 2mph 2mph 1025mB
18:00 2942m 8°C 8_5 0cm 36% 5mph 5mph 1023mB
21:00 3281m 7°C 7_7 0cm 52% 7mph 7mph 1020mB
0:00 3357m 7°C 7_7 0cm 47% 7mph 8mph 1019mB
3:00 3422m 3°C 3_2 0cm 83% 2mph 2mph 1022mB
6:00 2850m 0°C 0_3 0cm 63% 3mph 3mph 1023mB
9:00 2548m -1°C -1_2 0cm 0% 2mph 3mph 1024mB
12:00 2163m 0°C 0_2 0cm 2% 2mph 3mph 1024mB
15:00 3293m 4°C 4_4 0cm 38% 4mph 5mph 1023mB
18:00 3364m 11°C 11_7 0cm 58% 7mph 10mph 1019mB
21:00 3612m 11°C 11_12 0cm 98% 12mph 17mph 1015mB
0:00 3719m 11°C 11_9 0cm 87% 9mph 17mph 1014mB
3:00 3712m 3°C 3_3 0cm 87% 3mph 3mph 1017mB
6:00 3496m 2°C 2_3 0cm 78% 3mph 4mph 1018mB
9:00 3061m 1°C 1_2 0cm 53% 2mph 3mph 1018mB
12:00 2799m 1°C 1_3 0cm 76% 3mph 4mph 1020mB
15:00 3228m 4°C 4_2 0cm 92% 2mph 3mph 1020mB
18:00 3290m 10°C 10_8 0cm 93% 8mph 12mph 1017mB
21:00 3497m 10°C 10_10 0cm 94% 10mph 14mph 1015mB
0:00 3645m 10°C 10_6 0cm 96% 6mph 11mph 1014mB
3:00 3797m 5°C 5_2 0cm 96% 2mph 2mph 1016mB
6:00 3799m 4°C 4_4 0cm 52% 4mph 5mph 1016mB
9:00 3821m 3°C 3_5 0cm 2% 5mph 6mph 1015mB
12:00 3796m 4°C 4_4 0cm 1% 4mph 5mph 1016mB
15:00 3788m 7°C 7_4 0cm 0% 4mph 4mph 1015mB
18:00 3751m 14°C 14_8 0cm 0% 8mph 13mph 1013mB
21:00 4012m 14°C 14_11 0cm 0% 11mph 15mph 1011mB
0:00 4193m 14°C 14_6 0cm 0% 6mph 11mph 1010mB
3:00 4220m 7°C 7_6 0cm 0% 6mph 8mph 1014mB
6:00 4252m 6°C 6_7 0cm 9% 7mph 8mph 1015mB
9:00 4415m 5°C 5_7 0cm 90% 7mph 8mph 1016mB
12:00 4411m 6°C 6_7 0cm 81% 7mph 8mph 1016mB
15:00 4322m 8°C 8_8 0cm 64% 8mph 13mph 1014mB
18:00 4205m 17°C 17_12 0cm 45% 12mph 23mph 1010mB
21:00 4264m 17°C 17_17 0cm 35% 17mph 26mph 1007mB
0:00 4323m 16°C 16_11 0cm 60% 11mph 24mph 1006mB
3:00 4297m 9°C 9_6 0cm 72% 6mph 7mph 1009mB
6:00 4282m 7°C 7_6 0cm 81% 6mph 7mph 1010mB
9:00 4217m 5°C 5_5 0cm 95% 5mph 7mph 1010mB
12:00 4158m 6°C 6_6 0cm 79% 6mph 8mph 1010mB
15:00 4046m 8°C 8_6 0cm 98% 6mph 12mph 1009mB
18:00 3904m 12°C 12_8 0cm 99% 8mph 15mph 1006mB
21:00 3801m 12°C 12_14 0cm 100% 14mph 24mph 1005mB
0:00 3534m 8°C 8_6 0cm 100% 6mph 19mph 1006mB
3:00 3654m 6°C 6_2 0cm 100% 2mph 2mph 1010mB
6:00 3339m 2°C 2_4 0cm 68% 4mph 5mph 1012mB
9:00 3185m 1°C 1_1 0cm 64% 1mph 1mph 1013mB
12:00 2892m 2°C 2_3 0cm 82% 3mph 4mph 1014mB
15:00 2732m 3°C 3_7 0cm 54% 7mph 13mph 1013mB
18:00 3144m 9°C 9_12 0cm 61% 12mph 20mph 1011mB
21:00 3360m 9°C 9_19 0cm 76% 19mph 27mph 1008mB
0:00 3392m 9°C 9_15 0cm 87% 15mph 28mph 1007mB
3:00 3270m 5°C 5_6 0cm 100% 6mph 22mph 1009mB
6:00 2890m 2°C 2_3 1cm 100% 3mph 5mph 1010mB
9:00 2576m 0°C 0_3 1cm 100% 3mph 4mph 1011mB
12:00 2368m 2°C 2_3 1cm 99% 3mph 5mph 1013mB
15:00 2344m -1°C -1_5 0cm 11% 5mph 8mph 1016mB
18:00 2624m 4°C 4_5 1cm 24% 5mph 8mph 1016mB
Morning 0.322917mm 0.3125 1963m -3°C -3_4 0cm 35% 4mph 5mph 1023mB
Afternoon 0.0572917mm 0 3074m 9°C 9_7 0cm 0% 7mph 10mph 1020mB
Morning 0.0260417mm 0 2210m -1°C -1_4 0cm 1% 4mph 4mph 1025mB
Afternoon 0.3125mm 0 3424m 11°C 11_8 0cm 74% 8mph 14mph 1020mB
Morning 0.572917mm 0 3460m 2°C 2_4 0cm 70% 4mph 5mph 1020mB
Afternoon 0.28125mm 0 3231m 10°C 10_7 0cm 3% 7mph 11mph 1017mB
Morning 0.0208333mm 0 3439m 1°C 1_5 0cm 0% 5mph 6mph 1018mB
Afternoon 0.00520833mm 0 3027m 10°C 10_3 0cm 10% 3mph 5mph 1018mB
Morning 0.0520833mm 0 3222m 1°C 1_3 0cm 65% 3mph 4mph 1017mB
Afternoon 0.078125mm 0 3312m 11°C 11_9 0cm 1% 9mph 12mph 1014mB
Morning 0.015625mm 0 3704m 3°C 3_9 0cm 25% 9mph 19mph 1011mB
Afternoon 0.0208333mm 0 3432m 11°C 11_10 0cm 39% 10mph 19mph 1008mB

16 day outlook at a glance

Forecast issued: 23/09/2018 05:49:54

Chat

Your comments and questions. In a resort? Let us know what it's like!


Characters left 250

For terms and conditions see Readers Comments on the Cookie and privacy policy page.